| time (UTC) | temp C | wind direction | speed KPH | gust KPH | rain 1hr cm | rain 24hr cm | rain mn cm | humidity % | barometer mb |
| 20260509135044 | 22 | 0 | 0.0 | 6.4 | 0.00 | 0.00 | 0.00 | 83 | 1010.5 |
| 20260509134551 | 22 | 355 | 0.0 | 6.4 | 0.00 | 0.00 | 0.00 | 84 | 1010.3 |
| 20260509134044 | 22 | 0 | 0.0 | 6.4 | 0.00 | 0.00 | 0.00 | 84 | 1010.5 |
| 20260509133543 | 22 | 0 | 1.6 | 6.4 | 0.00 | 0.00 | 0.00 | 85 | 1010.3 |
| 20260509133047 | 22 | 0 | 1.6 | 6.4 | 0.00 | 0.00 | 0.00 | 85 | 1010.2 |
| 20260509132543 | 21 | 330 | 0.0 | 6.4 | 0.00 | 0.00 | 0.00 | 87 | 1010.2 |
| 20260509132042 | 21 | 302 | 0.0 | 8.0 | 0.00 | 0.00 | 0.00 | 87 | 1010.1 |
| 20260509131552 | 21 | 0 | 1.6 | 9.7 | 0.00 | 0.00 | 0.00 | 88 | 1010.2 |
| 20260509131044 | 21 | 0 | 0.0 | 11.3 | 0.00 | 0.00 | 0.00 | 89 | 1010.2 |
| 20260509130544 | 20 | 0 | 1.6 | 11.3 | 0.00 | 0.00 | 0.00 | 89 | 1010.2 |
| 20260509125546 | 20 | 344 | 0.0 | 6.4 | 0.00 | 0.05 | 0.00 | 90 | 1010.3 |
| 20260509125046 | 20 | 296 | 1.6 | 6.4 | 0.00 | 0.05 | 0.00 | 91 | 1010.2 |
| 20260509124552 | 20 | 0 | 0.0 | 4.8 | 0.00 | 0.05 | 0.00 | 91 | 1010.2 |
| 20260509124044 | 20 | 0 | 0.0 | 4.8 | 0.00 | 0.05 | 0.00 | 91 | 1010.1 |
| 20260509123544 | 20 | 304 | 0.0 | 4.8 | 0.00 | 0.05 | 0.00 | 91 | 1010.1 |
| 20260509123053 | 20 | 0 | 0.0 | 4.8 | 0.00 | 0.05 | 0.00 | 91 | 1010.0 |
| 20260509122543 | 20 | 0 | 1.6 | 4.8 | 0.00 | 0.05 | 0.00 | 91 | 1010.0 |
| 20260509122043 | 20 | 275 | 0.0 | 4.8 | 0.00 | 0.05 | 0.00 | 91 | 1009.9 |
| 20260509121556 | 20 | 331 | 0.0 | 4.8 | 0.00 | 0.05 | 0.00 | 91 | 1009.9 |
| 20260509121049 | 20 | 319 | 0.0 | 4.8 | 0.00 | 0.05 | 0.00 | 90 | 1009.9 |
| 20260509120548 | 20 | 297 | 0.0 | 3.2 | 0.00 | 0.05 | 0.00 | 90 | 1010.0 |
| 20260509120058 | 20 | 0 | 0.0 | 4.8 | 0.00 | 0.05 | 0.00 | 90 | 1009.9 |
| 20260509115548 | 20 | 288 | 0.0 | 6.4 | 0.00 | 0.05 | 0.00 | 89 | 1010.0 |
| 20260509115048 | 20 | 320 | 0.0 | 11.3 | 0.00 | 0.05 | 0.00 | 89 | 1009.8 |
| 20260509114553 | 20 | 360 | 1.6 | 11.3 | 0.00 | 0.05 | 0.00 | 88 | 1009.8 |
| 20260509114049 | 20 | 329 | 0.0 | 11.3 | 0.00 | 0.05 | 0.00 | 88 | 1009.7 |
| 20260509113547 | 20 | 310 | 1.6 | 11.3 | 0.00 | 0.05 | 0.00 | 87 | 1009.6 |
| 20260509113049 | 20 | 299 | 1.6 | 11.3 | 0.00 | 0.05 | 0.00 | 86 | 1009.3 |
| 20260509112548 | 20 | 298 | 3.2 | 11.3 | 0.00 | 0.05 | 0.00 | 86 | 1009.2 |
| 20260509112047 | 20 | 290 | 3.2 | 11.3 | 0.00 | 0.05 | 0.00 | 85 | 1009.0 |
| 20260509111551 | 20 | 304 | 1.6 | 9.7 | 0.00 | 0.05 | 0.00 | 85 | 1008.9 |
| 20260509111049 | 20 | 289 | 1.6 | 8.0 | 0.00 | 0.05 | 0.00 | 84 | 1008.9 |
| 20260509110548 | 20 | 0 | 0.0 | 4.8 | 0.00 | 0.05 | 0.00 | 83 | 1008.7 |
| 20260509110057 | 20 | 0 | 0.0 | 4.8 | 0.00 | 0.05 | 0.00 | 83 | 1008.6 |
| 20260509105547 | 20 | 0 | 0.0 | 4.8 | 0.00 | 0.15 | 0.00 | 83 | 1008.3 |
| 20260509105048 | 20 | 0 | 0.0 | 4.8 | 0.00 | 0.15 | 0.00 | 83 | 1008.3 |
| 20260509104552 | 20 | 255 | 0.0 | 4.8 | 0.00 | 0.15 | 0.00 | 83 | 1008.3 |
| 20260509104047 | 20 | 0 | 0.0 | 4.8 | 0.00 | 0.15 | 0.00 | 82 | 1008.4 |
| 20260509103547 | 20 | 0 | 0.0 | 6.4 | 0.00 | 0.15 | 0.00 | 83 | 1008.4 |
| 20260509103051 | 20 | 0 | 0.0 | 6.4 | 0.00 | 0.15 | 0.00 | 82 | 1008.4 |
| 20260509102548 | 20 | 0 | 0.0 | 6.4 | 0.00 | 0.15 | 0.00 | 82 | 1008.4 |
| 20260509102051 | 20 | 0 | 0.0 | 6.4 | 0.00 | 0.15 | 0.00 | 82 | 1008.3 |
| 20260509101553 | 20 | 0 | 0.0 | 3.2 | 0.00 | 0.15 | 0.00 | 82 | 1008.3 |
| 20260509101048 | 21 | 0 | 0.0 | 3.2 | 0.00 | 0.15 | 0.00 | 82 | 1008.3 |
| 20260509100548 | 21 | 0 | 0.0 | 3.2 | 0.00 | 0.15 | 0.00 | 83 | 1008.2 |
| 20260509100049 | 21 | 0 | 0.0 | 3.2 | 0.00 | 0.15 | 0.00 | 83 | 1008.2 |
| 20260509095548 | 21 | 0 | 0.0 | 3.2 | 0.00 | 0.15 | 0.00 | 83 | 1008.2 |
| 20260509095047 | 21 | 0 | 0.0 | 3.2 | 0.00 | 0.15 | 0.00 | 84 | 1008.1 |
| 20260509094548 | 21 | 0 | 0.0 | 3.2 | 0.00 | 0.15 | 0.00 | 85 | 1008.0 |
| 20260509094048 | 21 | 0 | 0.0 | 3.2 | 0.00 | 0.15 | 0.00 | 85 | 1008.0 |
| 20260509093548 | 21 | 0 | 0.0 | 4.8 | 0.00 | 0.15 | 0.00 | 84 | 1007.7 |
| 20260509093052 | 21 | 0 | 0.0 | 4.8 | 0.00 | 0.15 | 0.00 | 84 | 1007.7 |
| 20260509092548 | 21 | 202 | 0.0 | 4.8 | 0.00 | 0.15 | 0.00 | 85 | 1007.6 |
| 20260509092048 | 21 | 0 | 0.0 | 4.8 | 0.00 | 0.15 | 0.00 | 84 | 1007.8 |
| 20260509091546 | 21 | 0 | 0.0 | 4.8 | 0.00 | 0.15 | 0.00 | 84 | 1007.9 |
| 20260509091048 | 21 | 300 | 0.0 | 3.2 | 0.00 | 0.15 | 0.00 | 84 | 1007.8 |
| 20260509090548 | 21 | 360 | 0.0 | 20.9 | 0.00 | 0.15 | 0.00 | 85 | 1007.8 |
| 20260509090049 | 21 | 0 | 0.0 | 20.9 | 0.00 | 0.15 | 0.00 | 85 | 1007.7 |
| 20260509085547 | 21 | 302 | 3.2 | 16.1 | 0.00 | 0.15 | 0.00 | 86 | 1007.8 |
| 20260509085049 | 21 | 241 | 1.6 | 19.3 | 0.00 | 0.15 | 0.00 | 87 | 1007.1 |
| 20260509084552 | 21 | 344 | 3.2 | 19.3 | 0.00 | 0.15 | 0.00 | 88 | 1006.2 |
| 20260509084048 | 21 | 192 | 3.2 | 16.1 | 0.00 | 0.15 | 0.00 | 88 | 1005.4 |
| 20260509083547 | 21 | 176 | 3.2 | 19.3 | 0.00 | 0.15 | 0.00 | 88 | 1005.7 |
| 20260509083050 | 21 | 229 | 1.6 | 19.3 | 0.00 | 0.15 | 0.00 | 88 | 1005.8 |
| 20260509082547 | 21 | 188 | 8.0 | 19.3 | 0.00 | 0.15 | 0.00 | 88 | 1005.4 |
| 20260509082047 | 21 | 196 | 4.8 | 19.3 | 0.00 | 0.15 | 0.00 | 88 | 1005.3 |
| 20260509081558 | 21 | 0 | 8.0 | 17.7 | 0.00 | 0.15 | 0.00 | 88 | 1005.9 |
| 20260509081048 | 21 | 202 | 6.4 | 17.7 | 0.00 | 0.15 | 0.00 | 88 | 1006.4 |
| 20260509080545 | 21 | 256 | 1.6 | 14.5 | 0.00 | 0.15 | 0.00 | 88 | 1007.0 |
| 20260509080059 | 21 | 232 | 1.6 | 11.3 | 0.00 | 0.15 | 0.00 | 88 | 1007.4 |
| 20260509075550 | 21 | 186 | 1.6 | 14.5 | 0.00 | 0.15 | 0.00 | 88 | 1007.8 |
| 20260509075048 | 21 | 210 | 3.2 | 16.1 | 0.00 | 0.15 | 0.00 | 88 | 1008.0 |
| 20260509074554 | 21 | 254 | 1.6 | 16.1 | 0.00 | 0.15 | 0.00 | 88 | 1008.3 |
| 20260509074047 | 21 | 235 | 4.8 | 14.5 | 0.00 | 0.15 | 0.00 | 88 | 1008.7 |
| 20260509073548 | 21 | 269 | 3.2 | 16.1 | 0.00 | 0.15 | 0.00 | 88 | 1009.1 |
| 20260509073054 | 21 | 248 | 3.2 | 16.1 | 0.00 | 0.15 | 0.00 | 88 | 1009.0 |
| 20260509072546 | 21 | 256 | 1.6 | 9.7 | 0.00 | 0.15 | 0.00 | 88 | 1009.0 |
| 20260509072046 | 21 | 170 | 3.2 | 16.1 | 0.00 | 0.15 | 0.00 | 88 | 1009.2 |
| 20260509071557 | 21 | 0 | 3.2 | 16.1 | 0.00 | 0.15 | 0.00 | 88 | 1009.4 |
| 20260509071045 | 21 | 232 | 4.8 | 16.1 | 0.00 | 0.15 | 0.00 | 88 | 1009.7 |
| 20260509070549 | 21 | 241 | 3.2 | 12.9 | 0.00 | 0.15 | 0.00 | 89 | 1009.8 |
| 20260509070104 | 21 | 262 | 4.8 | 12.9 | 0.00 | 0.15 | 0.00 | 89 | 1009.7 |
| 20260509065545 | 20 | 258 | 3.2 | 12.9 | 0.00 | 0.15 | 0.00 | 90 | 1009.8 |
| 20260509065045 | 20 | 283 | 3.2 | 9.7 | 0.00 | 0.15 | 0.00 | 90 | 1010.4 |
| 20260509064558 | 20 | 217 | 1.6 | 8.0 | 0.00 | 0.15 | 0.00 | 89 | 1010.6 |
| 20260509064045 | 20 | 208 | 0.0 | 6.4 | 0.00 | 0.15 | 0.00 | 89 | 1010.5 |
| 20260509063549 | 20 | 225 | 0.0 | 8.0 | 0.00 | 0.15 | 0.00 | 89 | 1010.3 |
| 20260509063054 | 20 | 0 | 0.0 | 8.0 | 0.00 | 0.15 | 0.00 | 89 | 1010.4 |
| 20260509062545 | 20 | 0 | 0.0 | 8.0 | 0.00 | 0.15 | 0.00 | 89 | 1010.3 |
| 20260509062048 | 20 | 0 | 1.6 | 8.0 | 0.00 | 0.15 | 0.00 | 89 | 1010.2 |
| 20260509061606 | 20 | 252 | 3.2 | 6.4 | 0.00 | 0.15 | 0.00 | 89 | 1010.2 |
| 20260509061045 | 20 | 242 | 1.6 | 6.4 | 0.00 | 0.15 | 0.00 | 89 | 1010.2 |
| 20260509060545 | 20 | 271 | 0.0 | 0.0 | 0.00 | 0.15 | 0.00 | 88 | 1010.3 |
| 20260509060113 | 20 | 0 | 0.0 | 0.0 | 0.00 | 0.15 | 0.00 | 88 | 1010.2 |
| 20260509055546 | 20 | 0 | 0.0 | 0.0 | 0.00 | 0.15 | 0.00 | 88 | 1010.3 |
| 20260509055045 | 20 | 0 | 0.0 | 0.0 | 0.00 | 0.15 | 0.00 | 87 | 1010.2 |
| 20260509054554 | 21 | 0 | 0.0 | 0.0 | 0.00 | 0.15 | 0.00 | 87 | 1010.4 |
| 20260509054045 | 21 | 0 | 0.0 | 0.0 | 0.00 | 0.15 | 0.00 | 87 | 1010.8 |
| 20260509053546 | 21 | 0 | 0.0 | 0.0 | 0.00 | 0.15 | 0.00 | 86 | 1010.9 |
| 20260509053050 | 21 | 0 | 0.0 | 0.0 | 0.00 | 0.15 | 0.00 | 86 | 1010.8 |
| 20260509052547 | 21 | 0 | 0.0 | 0.0 | 0.00 | 0.15 | 0.00 | 86 | 1010.9 |
| 20260509052045 | 21 | 0 | 0.0 | 1.6 | 0.00 | 0.15 | 0.00 | 86 | 1011.0 |
| 20260509051558 | 21 | 0 | 0.0 | 3.2 | 0.00 | 0.15 | 0.00 | 86 | 1011.0 |
| 20260509051046 | 21 | 0 | 0.0 | 3.2 | 0.00 | 0.15 | 0.00 | 85 | 1011.1 |
| 20260509050546 | 21 | 0 | 0.0 | 3.2 | 0.00 | 0.15 | 0.00 | 85 | 1011.4 |
| 20260509050123 | 21 | 0 | 0.0 | 1.6 | 0.00 | 0.15 | 0.00 | 84 | 1010.9 |
| 20260509045545 | 21 | 0 | 0.0 | 3.2 | 0.00 | 0.15 | 0.15 | 84 | 1010.3 |
| 20260509045045 | 22 | 0 | 0.0 | 3.2 | 0.00 | 0.15 | 0.15 | 83 | 1010.0 |
| 20260509044602 | 22 | 0 | 0.0 | 3.2 | 0.00 | 0.15 | 0.15 | 83 | 1010.2 |
| 20260509044047 | 22 | 0 | 0.0 | 3.2 | 0.00 | 0.15 | 0.15 | 83 | 1010.3 |
| 20260509043545 | 22 | 0 | 0.0 | 11.3 | 0.00 | 0.15 | 0.15 | 83 | 1010.2 |
| 20260509043053 | 22 | 207 | 0.0 | 11.3 | 0.00 | 0.15 | 0.15 | 83 | 1010.0 |
| 20260509042547 | 22 | 194 | 0.0 | 9.7 | 0.00 | 0.15 | 0.15 | 83 | 1009.8 |
| 20260509042049 | 22 | 0 | 1.6 | 9.7 | 0.00 | 0.15 | 0.15 | 83 | 1009.6 |
| 20260509041550 | 22 | 213 | 3.2 | 8.0 | 0.00 | 0.15 | 0.15 | 83 | 1009.6 |
| 20260509041049 | 22 | 203 | 3.2 | 8.0 | 0.00 | 0.15 | 0.15 | 83 | 1009.7 |
| 20260509040547 | 22 | 171 | 1.6 | 8.0 | 0.00 | 0.15 | 0.15 | 82 | 1009.7 |
| 20260509040058 | 22 | 0 | 0.0 | 9.7 | 0.00 | 0.15 | 0.15 | 82 | 1009.6 |
| 20260509035551 | 22 | 0 | 1.6 | 9.7 | 0.00 | 0.15 | 0.15 | 82 | 1009.6 |
| 20260509035047 | 22 | 209 | 0.0 | 8.0 | 0.00 | 0.15 | 0.15 | 82 | 1009.6 |
| 20260509034552 | 22 | 165 | 0.0 | 4.8 | 0.00 | 0.15 | 0.15 | 82 | 1009.7 |
| 20260509034046 | 22 | 0 | 0.0 | 0.0 | 0.00 | 0.15 | 0.15 | 82 | 1010.0 |
| 20260509033547 | 22 | 0 | 0.0 | 0.0 | 0.00 | 0.15 | 0.15 | 82 | 1010.2 |
| 20260509033056 | 22 | 0 | 0.0 | 1.6 | 0.00 | 0.15 | 0.15 | 82 | 1010.3 |
| 20260509032544 | 22 | 0 | 0.0 | 4.8 | 0.00 | 0.15 | 0.15 | 82 | 1010.3 |
| 20260509032047 | 22 | 0 | 0.0 | 6.4 | 0.00 | 0.15 | 0.15 | 82 | 1010.2 |
| 20260509031555 | 22 | 0 | 0.0 | 6.4 | 0.00 | 0.15 | 0.15 | 82 | 1010.2 |
| 20260509031048 | 22 | 120 | 0.0 | 6.4 | 0.00 | 0.15 | 0.15 | 82 | 1010.0 |
| 20260509030548 | 22 | 0 | 0.0 | 8.0 | 0.00 | 0.15 | 0.15 | 82 | 1009.5 |
| 20260509030054 | 22 | 0 | 0.0 | 8.0 | 0.00 | 0.15 | 0.15 | 82 | 1009.5 |
| 20260509025546 | 22 | 0 | 1.6 | 8.0 | 0.00 | 0.15 | 0.15 | 82 | 1009.3 |
| 20260509025046 | 22 | 0 | 0.0 | 4.8 | 0.00 | 0.15 | 0.15 | 82 | 1009.2 |
| 20260509024617 | 22 | 126 | 0.0 | 6.4 | 0.00 | 0.15 | 0.15 | 82 | 1009.0 |
| 20260509024047 | 22 | 120 | 0.0 | 8.0 | 0.00 | 0.15 | 0.15 | 82 | 1008.9 |
| 20260509023550 | 22 | 180 | 0.0 | 12.9 | 0.00 | 0.15 | 0.15 | 81 | 1008.7 |
| 20260509023101 | 22 | 0 | 3.2 | 12.9 | 0.00 | 0.15 | 0.15 | 81 | 1008.5 |
| 20260509022547 | 22 | 186 | 3.2 | 12.9 | 0.00 | 0.15 | 0.15 | 81 | 1008.3 |
| 20260509022047 | 22 | 206 | 3.2 | 11.3 | 0.00 | 0.15 | 0.15 | 81 | 1008.3 |
| 20260509021555 | 22 | 197 | 1.6 | 11.3 | 0.00 | 0.15 | 0.15 | 81 | 1008.3 |
| 20260509021046 | 22 | 0 | 3.2 | 11.3 | 0.00 | 0.15 | 0.15 | 80 | 1008.3 |
| 20260509020548 | 22 | 164 | 1.6 | 11.3 | 0.00 | 0.15 | 0.15 | 80 | 1008.4 |
| 20260509020058 | 22 | 153 | 0.0 | 12.9 | 0.00 | 0.15 | 0.15 | 80 | 1008.3 |
| 20260509015547 | 22 | 193 | 3.2 | 14.5 | 0.00 | 0.15 | 0.15 | 80 | 1008.0 |
| 20260509015047 | 22 | 155 | 4.8 | 16.1 | 0.00 | 0.15 | 0.15 | 80 | 1008.0 |
| 20260509014553 | 22 | 172 | 4.8 | 16.1 | 0.00 | 0.15 | 0.15 | 80 | 1008.1 |
| 20260509014048 | 22 | 204 | 3.2 | 9.7 | 0.00 | 0.15 | 0.15 | 79 | 1008.3 |
| 20260509013548 | 22 | 186 | 1.6 | 8.0 | 0.00 | 0.15 | 0.15 | 79 | 1008.5 |
| 20260509013059 | 22 | 216 | 0.0 | 6.4 | 0.00 | 0.15 | 0.15 | 79 | 1008.6 |
| 20260509012545 | 22 | 162 | 1.6 | 6.4 | 0.00 | 0.15 | 0.15 | 79 | 1008.7 |
| 20260509012046 | 22 | 0 | 0.0 | 6.4 | 0.00 | 0.15 | 0.15 | 79 | 1008.8 |
| 20260509011556 | 22 | 0 | 1.6 | 6.4 | 0.00 | 0.15 | 0.15 | 79 | 1008.8 |
| 20260509011045 | 22 | 0 | 0.0 | 8.0 | 0.00 | 0.15 | 0.15 | 78 | 1008.6 |
| 20260509010545 | 22 | 0 | 0.0 | 8.0 | 0.00 | 0.15 | 0.15 | 78 | 1008.4 |
| 20260509010049 | 22 | 61 | 0.0 | 8.0 | 0.00 | 0.15 | 0.15 | 78 | 1008.3 |
| 20260509005545 | 22 | 0 | 0.0 | 12.9 | 0.00 | 0.15 | 0.15 | 78 | 1008.2 |
| 20260509005045 | 22 | 206 | 0.0 | 19.3 | 0.00 | 0.15 | 0.15 | 78 | 1008.2 |
| 20260509004554 | 22 | 140 | 3.2 | 19.3 | 0.00 | 0.15 | 0.15 | 77 | 1008.0 |
| 20260509004048 | 22 | 182 | 3.2 | 11.3 | 0.00 | 0.15 | 0.15 | 77 | 1008.0 |
| 20260509003546 | 22 | 165 | 1.6 | 12.9 | 0.00 | 0.15 | 0.15 | 77 | 1008.0 |
| 20260509003103 | 22 | 201 | 3.2 | 12.9 | 0.00 | 0.15 | 0.15 | 76 | 1008.0 |
| 20260509002548 | 23 | 54 | 3.2 | 12.9 | 0.00 | 0.15 | 0.15 | 76 | 1007.9 |
| 20260509002046 | 23 | 192 | 4.8 | 12.9 | 0.00 | 0.15 | 0.15 | 76 | 1007.9 |
| 20260509001553 | 23 | 176 | 6.4 | 16.1 | 0.00 | 0.15 | 0.15 | 76 | 1007.8 |
| 20260509001046 | 23 | 180 | 3.2 | 16.1 | 0.00 | 0.15 | 0.15 | 76 | 1007.7 |
| 20260509000545 | 23 | 167 | 4.8 | 14.5 | 0.00 | 0.15 | 0.15 | 75 | 1007.8 |
| 20260508235545 | 23 | 148 | 4.8 | 11.3 | 0.00 | 0.15 | 0.15 | 75 | 1008.1 |
| 20260508235044 | 23 | 0 | 1.6 | 8.0 | 0.00 | 0.15 | 0.15 | 74 | 1008.2 |
| 20260508234548 | 23 | 254 | 1.6 | 9.7 | 0.00 | 0.15 | 0.15 | 74 | 1008.2 |
| 20260508234045 | 23 | 175 | 1.6 | 9.7 | 0.00 | 0.15 | 0.15 | 74 | 1008.3 |
| 20260508233547 | 23 | 138 | 1.6 | 12.9 | 0.00 | 0.15 | 0.15 | 74 | 1008.4 |
| 20260508233055 | 23 | 172 | 4.8 | 12.9 | 0.00 | 0.15 | 0.15 | 73 | 1008.4 |
| 20260508232545 | 23 | 155 | 3.2 | 12.9 | 0.00 | 0.15 | 0.15 | 73 | 1008.5 |
| 20260508232046 | 23 | 215 | 3.2 | 12.9 | 0.00 | 0.15 | 0.15 | 73 | 1008.4 |
| 20260508231557 | 23 | 192 | 3.2 | 12.9 | 0.00 | 0.15 | 0.15 | 73 | 1008.4 |
| 20260508231048 | 23 | 86 | 1.6 | 11.3 | 0.00 | 0.15 | 0.15 | 73 | 1008.4 |
| 20260508230548 | 23 | 111 | 3.2 | 11.3 | 0.00 | 0.15 | 0.15 | 72 | 1008.3 |
| 20260508230106 | 23 | 155 | 1.6 | 11.3 | 0.00 | 0.15 | 0.15 | 71 | 1008.4 |
| 20260508225546 | 23 | 81 | 3.2 | 11.3 | 0.00 | 0.15 | 0.15 | 71 | 1008.4 |
| 20260508225046 | 23 | 126 | 3.2 | 12.9 | 0.00 | 0.15 | 0.15 | 70 | 1008.4 |
| 20260508224548 | 24 | 167 | 3.2 | 14.5 | 0.00 | 0.15 | 0.15 | 70 | 1008.4 |
| 20260508224045 | 24 | 214 | 3.2 | 16.1 | 0.00 | 0.15 | 0.15 | 69 | 1008.4 |
| 20260508223545 | 24 | 199 | 6.4 | 16.1 | 0.00 | 0.15 | 0.15 | 69 | 1008.5 |
| 20260508223050 | 24 | 153 | 3.2 | 14.5 | 0.00 | 0.15 | 0.15 | 69 | 1008.4 |
| 20260508222545 | 24 | 223 | 3.2 | 14.5 | 0.00 | 0.15 | 0.15 | 68 | 1008.5 |
| 20260508222047 | 24 | 0 | 4.8 | 14.5 | 0.00 | 0.15 | 0.15 | 67 | 1008.5 |
| 20260508221550 | 25 | 161 | 3.2 | 14.5 | 0.00 | 0.15 | 0.15 | 67 | 1008.4 |
| 20260508221048 | 24 | 0 | 4.8 | 14.5 | 0.00 | 0.15 | 0.15 | 67 | 1008.6 |
| 20260508220550 | 25 | 187 | 6.4 | 14.5 | 0.00 | 0.15 | 0.15 | 66 | 1008.6 |
| 20260508220053 | 24 | 182 | 3.2 | 16.1 | 0.00 | 0.15 | 0.15 | 67 | 1008.6 |
| 20260508215548 | 24 | 128 | 3.2 | 16.1 | 0.00 | 0.15 | 0.15 | 68 | 1008.5 |
| 20260508215048 | 24 | 195 | 4.8 | 19.3 | 0.00 | 0.15 | 0.15 | 68 | 1008.5 |
| 20260508214600 | 23 | 137 | 3.2 | 19.3 | 0.00 | 0.15 | 0.15 | 68 | 1008.5 |
| 20260508214049 | 23 | 226 | 8.0 | 16.1 | 0.00 | 0.15 | 0.15 | 68 | 1008.7 |
| 20260508213548 | 24 | 201 | 6.4 | 14.5 | 0.00 | 0.15 | 0.15 | 68 | 1008.7 |
| 20260508213049 | 23 | 129 | 4.8 | 14.5 | 0.00 | 0.15 | 0.15 | 68 | 1008.8 |
| 20260508212548 | 23 | 260 | 3.2 | 11.3 | 0.00 | 0.15 | 0.15 | 68 | 1008.8 |
| 20260508212048 | 23 | 178 | 3.2 | 9.7 | 0.00 | 0.15 | 0.15 | 67 | 1008.9 |
| 20260508211556 | 23 | 0 | 3.2 | 16.1 | 0.00 | 0.15 | 0.15 | 67 | 1009.0 |
| 20260508211055 | 23 | 232 | 3.2 | 16.1 | 0.00 | 0.15 | 0.15 | 67 | 1009.2 |
| 20260508210548 | 24 | 360 | 4.8 | 16.1 | 0.00 | 0.15 | 0.15 | 66 | 1009.1 |
| 20260508210050 | 24 | 198 | 4.8 | 14.5 | 0.00 | 0.15 | 0.15 | 65 | 1009.0 |
| 20260508205547 | 24 | 128 | 3.2 | 11.3 | 0.00 | 0.15 | 0.15 | 68 | 1009.0 |
| 20260508205047 | 24 | 185 | 4.8 | 11.3 | 0.00 | 0.15 | 0.15 | 68 | 1009.1 |
| 20260508204551 | 23 | 150 | 3.2 | 11.3 | 0.00 | 0.15 | 0.15 | 69 | 1008.9 |
| 20260508204049 | 23 | 0 | 1.6 | 9.7 | 0.00 | 0.15 | 0.15 | 69 | 1009.2 |
| 20260508203547 | 23 | 0 | 3.2 | 9.7 | 0.00 | 0.15 | 0.15 | 70 | 1009.5 |
| 20260508203054 | 22 | 183 | 1.6 | 8.0 | 0.00 | 0.15 | 0.15 | 71 | 1009.8 |
| 20260508202548 | 22 | 183 | 3.2 | 12.9 | 0.00 | 0.15 | 0.15 | 70 | 1010.2 |
| 20260508202051 | 22 | 113 | 1.6 | 12.9 | 0.00 | 0.15 | 0.15 | 70 | 1010.6 |
| 20260508201557 | 22 | 217 | 1.6 | 11.3 | 0.00 | 0.15 | 0.15 | 69 | 1010.9 |
| 20260508201048 | 22 | 0 | 1.6 | 9.7 | 0.00 | 0.15 | 0.15 | 69 | 1011.0 |
| 20260508200548 | 22 | 199 | 1.6 | 11.3 | 0.00 | 0.15 | 0.15 | 69 | 1010.9 |
| 20260508200055 | 23 | 169 | 1.6 | 11.3 | 0.00 | 0.15 | 0.15 | 69 | 1010.9 |
| 20260508195547 | 23 | 169 | 4.8 | 11.3 | 0.00 | 0.15 | 0.15 | 68 | 1010.9 |
| 20260508195047 | 23 | 149 | 1.6 | 11.3 | 0.00 | 0.15 | 0.15 | 67 | 1010.9 |
| 20260508194615 | 23 | 317 | 1.6 | 11.3 | 0.00 | 0.15 | 0.15 | 68 | 1010.8 |
| 20260508194047 | 23 | 0 | 1.6 | 11.3 | 0.00 | 0.15 | 0.15 | 68 | 1010.7 |
| 20260508193548 | 23 | 136 | 3.2 | 9.7 | 0.00 | 0.15 | 0.15 | 68 | 1010.7 |
| 20260508193052 | 23 | 159 | 0.0 | 8.0 | 0.00 | 0.15 | 0.15 | 69 | 1010.8 |
| 20260508192548 | 23 | 229 | 0.0 | 11.3 | 0.00 | 0.15 | 0.15 | 69 | 1010.9 |
| 20260508192048 | 23 | 0 | 1.6 | 11.3 | 0.00 | 0.15 | 0.15 | 69 | 1010.9 |
| 20260508191559 | 23 | 309 | 1.6 | 12.9 | 0.00 | 0.15 | 0.15 | 68 | 1010.9 |
| 20260508191051 | 23 | 136 | 6.4 | 12.9 | 0.00 | 0.15 | 0.15 | 67 | 1011.1 |
| 20260508190547 | 23 | 144 | 1.6 | 9.7 | 0.00 | 0.15 | 0.15 | 67 | 1011.1 |
| 20260508190056 | 23 | 0 | 1.6 | 11.3 | 0.00 | 0.15 | 0.15 | 66 | 1011.1 |
| 20260508185548 | 24 | 249 | 1.6 | 11.3 | 0.00 | 0.15 | 0.15 | 68 | 1011.1 |
| 20260508185046 | 24 | 145 | 3.2 | 11.3 | 0.00 | 0.15 | 0.15 | 66 | 1011.2 |
| 20260508184552 | 24 | 238 | 1.6 | 11.3 | 0.00 | 0.15 | 0.15 | 65 | 1011.2 |
| 20260508184046 | 25 | 236 | 1.6 | 9.7 | 0.00 | 0.15 | 0.15 | 65 | 1011.2 |
| 20260508183545 | 25 | 152 | 0.0 | 9.7 | 0.00 | 0.15 | 0.15 | 65 | 1011.3 |
| 20260508183051 | 24 | 0 | 0.0 | 9.7 | 0.00 | 0.15 | 0.15 | 66 | 1011.1 |
| 20260508182546 | 24 | 175 | 1.6 | 8.0 | 0.00 | 0.15 | 0.15 | 67 | 1011.2 |
| 20260508182045 | 24 | 0 | 3.2 | 8.0 | 0.00 | 0.15 | 0.15 | 66 | 1011.3 |
| 20260508181613 | 24 | 0 | 1.6 | 8.0 | 0.00 | 0.15 | 0.15 | 66 | 1011.3 |
| 20260508181045 | 24 | 0 | 1.6 | 9.7 | 0.00 | 0.15 | 0.15 | 67 | 1011.5 |
| 20260508180545 | 24 | 0 | 1.6 | 9.7 | 0.00 | 0.15 | 0.15 | 66 | 1011.6 |
| 20260508180058 | 24 | 0 | 3.2 | 9.7 | 0.00 | 0.15 | 0.15 | 65 | 1011.7 |
| 20260508175545 | 24 | 0 | 1.6 | 9.7 | 0.00 | 0.15 | 0.15 | 65 | 1011.9 |
| 20260508175047 | 24 | 157 | 3.2 | 9.7 | 0.00 | 0.15 | 0.15 | 66 | 1011.8 |
| 20260508174602 | 23 | 165 | 1.6 | 8.0 | 0.00 | 0.15 | 0.15 | 65 | 1011.8 |
| 20260508174046 | 23 | 211 | 3.2 | 9.7 | 0.00 | 0.15 | 0.15 | 66 | 1011.8 |
| 20260508173547 | 23 | 173 | 1.6 | 16.1 | 0.00 | 0.15 | 0.15 | 67 | 1012.0 |
| 20260508173055 | 23 | 171 | 3.2 | 16.1 | 0.00 | 0.15 | 0.15 | 65 | 1012.0 |
| 20260508172545 | 23 | 169 | 1.6 | 14.5 | 0.00 | 0.15 | 0.15 | 64 | 1012.2 |
| 20260508172046 | 23 | 133 | 3.2 | 9.7 | 0.00 | 0.15 | 0.15 | 65 | 1012.2 |
| 20260508171548 | 23 | 267 | 1.6 | 11.3 | 0.00 | 0.15 | 0.15 | 68 | 1012.4 |
| 20260508171045 | 23 | 217 | 1.6 | 11.3 | 0.00 | 0.15 | 0.15 | 65 | 1012.3 |
| 20260508170545 | 23 | 0 | 0.0 | 11.3 | 0.00 | 0.15 | 0.15 | 66 | 1012.3 |
| 20260508170048 | 22 | 204 | 1.6 | 9.7 | 0.00 | 0.15 | 0.15 | 66 | 1012.4 |
| 20260508165545 | 22 | 288 | 1.6 | 9.7 | 0.00 | 0.15 | 0.15 | 67 | 1012.5 |
| 20260508165046 | 22 | 217 | 3.2 | 9.7 | 0.00 | 0.15 | 0.15 | 67 | 1012.8 |
| 20260508164552 | 22 | 0 | 1.6 | 9.7 | 0.00 | 0.15 | 0.15 | 66 | 1013.0 |
| 20260508164044 | 21 | 151 | 0.0 | 8.0 | 0.00 | 0.15 | 0.15 | 69 | 1013.0 |
| 20260508163546 | 21 | 0 | 0.0 | 12.9 | 0.00 | 0.15 | 0.15 | 68 | 1013.0 |
| 20260508163102 | 21 | 161 | 3.2 | 12.9 | 0.00 | 0.15 | 0.15 | 67 | 1013.1 |
| 20260508162547 | 21 | 210 | 1.6 | 12.9 | 0.00 | 0.15 | 0.15 | 68 | 1013.3 |
| 20260508162047 | 21 | 0 | 1.6 | 12.9 | 0.00 | 0.15 | 0.15 | 68 | 1013.4 |
| 20260508161606 | 21 | 220 | 1.6 | 11.3 | 0.00 | 0.15 | 0.15 | 69 | 1013.4 |
| 20260508161047 | 21 | 131 | 1.6 | 9.7 | 0.00 | 0.15 | 0.15 | 68 | 1013.4 |
| 20260508160547 | 21 | 212 | 3.2 | 9.7 | 0.00 | 0.15 | 0.15 | 69 | 1013.5 |
| 20260508160054 | 20 | 137 | 1.6 | 11.3 | 0.00 | 0.15 | 0.15 | 70 | 1013.5 |
| 20260508155546 | 20 | 0 | 3.2 | 11.3 | 0.00 | 0.15 | 0.15 | 69 | 1013.6 |
| 20260508155047 | 20 | 191 | 3.2 | 9.7 | 0.00 | 0.15 | 0.15 | 69 | 1013.6 |
| 20260508154552 | 20 | 86 | 0.0 | 9.7 | 0.00 | 0.15 | 0.15 | 70 | 1013.6 |
| 20260508154047 | 20 | 189 | 0.0 | 8.0 | 0.00 | 0.15 | 0.15 | 70 | 1013.7 |
| 20260508153544 | 20 | 223 | 3.2 | 8.0 | 0.00 | 0.15 | 0.15 | 70 | 1013.8 |
| 20260508153055 | 20 | 249 | 1.6 | 12.9 | 0.00 | 0.15 | 0.15 | 70 | 1013.7 |
| 20260508152548 | 20 | 174 | 3.2 | 12.9 | 0.00 | 0.15 | 0.15 | 70 | 1013.8 |
| 20260508152047 | 19 | 242 | 3.2 | 11.3 | 0.00 | 0.15 | 0.15 | 72 | 1013.8 |
| 20260508151602 | 19 | 190 | 1.6 | 8.0 | 0.00 | 0.15 | 0.15 | 73 | 1013.8 |
| 20260508151048 | 18 | 0 | 0.0 | 6.4 | 0.00 | 0.15 | 0.15 | 75 | 1014.0 |
| 20260508150547 | 18 | 148 | 0.0 | 6.4 | 0.00 | 0.15 | 0.15 | 74 | 1014.1 |
| 20260508150055 | 18 | 153 | 0.0 | 8.0 | 0.00 | 0.15 | 0.15 | 76 | 1014.1 |
| 20260508145548 | 18 | 0 | 0.0 | 8.0 | 0.00 | 0.15 | 0.15 | 76 | 1014.0 |
| 20260508145043 | 18 | 201 | 0.0 | 8.0 | 0.00 | 0.15 | 0.15 | 76 | 1013.9 |
| 20260508144549 | 18 | 0 | 1.6 | 8.0 | 0.00 | 0.15 | 0.15 | 75 | 1014.0 |
| 20260508144048 | 17 | 136 | 3.2 | 11.3 | 0.00 | 0.15 | 0.15 | 76 | 1014.0 |
| 20260508143548 | 17 | 0 | 1.6 | 11.3 | 0.00 | 0.15 | 0.15 | 77 | 1014.0 |
| 20260508143051 | 17 | 0 | 1.6 | 11.3 | 0.00 | 0.15 | 0.15 | 77 | 1014.3 |
| 20260508142548 | 17 | 0 | 0.0 | 4.8 | 0.00 | 0.15 | 0.15 | 80 | 1014.3 |
| 20260508142049 | 17 | 0 | 0.0 | 4.8 | 0.00 | 0.15 | 0.15 | 81 | 1014.3 |
| 20260508141554 | 17 | 0 | 0.0 | 6.4 | 0.00 | 0.15 | 0.15 | 81 | 1014.2 |
| 20260508141047 | 17 | 0 | 0.0 | 6.4 | 0.00 | 0.15 | 0.15 | 81 | 1014.2 |
| 20260508140548 | 17 | 189 | 0.0 | 6.4 | 0.00 | 0.15 | 0.15 | 83 | 1014.3 |
| 20260508140051 | 17 | 0 | 1.6 | 6.4 | 0.00 | 0.15 | 0.15 | 83 | 1014.4 |
| 20260508135547 | 17 | 0 | 0.0 | 8.0 | 0.00 | 0.15 | 0.15 | 83 | 1014.3 |